Weather History for Upington, South Africa

Change the Weather History Date:

Saturday, November 30, 2013

  Actual Average Record
Temperature  
Mean Temperature 79 °F -  
Max Temperature 97 °F 92 °F 102 °F (2002)
Min Temperature 61 °F 63 °F 55 °F (1996)
Cooling Degree Days 14    
Growing Degree Days 29 (Base 50)    
Moisture  
Dew Point 26 °F    
Average Humidity 14    
Maximum Humidity 25    
Minimum Humidity 4    
Precipitation  
Precipitation 0.00 in 0.02 in - ()
Sea Level Pressure  
Sea Level Pressure 29.84 in    
Wind  
Wind Speed 8 mph ()    
Max Wind Speed 17 mph    
Max Gust Speed 23 mph    
Averages and records for this station are not official NWS values.
T = Trace of Precipitation, MM = Missing Value Source: Averaged Metar Reports

Daily Weather History Graph

Daily Weather History Graph

Search for Another Location

Airport:

Trip Planner

Search our weather history database for the weather conditions in past years. The results will help you decide how hot, cold, wet, or windy it might be!

Date:

Astronomy

Nov. 30, 2013 Rise Set
Actual Time 5:29 AM SAST 7:17 PM SAST
Civil Twilight 5:03 AM SAST 7:44 PM SAST
Nautical Twilight 4:31 AM SAST 8:16 PM SAST
Astronomical Twilight 3:58 AM SAST 8:49 PM SAST
Moon 3:18 AM SAST (11/30) 4:41 PM SAST (11/30)
Length of Visible Light 14h 40m
Length of Day
13h 48m
Waning Crescent, 9% of the Moon is Illuminated
Nov 30
Waning Crescent
Dec 3
New
Dec 9
First Quarter
Dec 17
Full
Dec 25
Last Quarter

Hourly Weather History & Observations

Time (SAST) Temp. Dew Point Humidity Pressure Visibility Wind Dir Wind Speed Gust Speed Precip Events Conditions
12:00 AM 75.2 °F 32.0 °F 21% 29.86 in - SSW 17.3 mph - N/A   Unknown
1:00 AM 71.6 °F 32.0 °F 23% 29.86 in - SW 9.2 mph - N/A   Clear
2:00 AM 71 °F 31 °F 13%  in 25 mi SW 12.7 mph - -  
2:00 AM 69.8 °F 32.0 °F 25% 29.83 in - SW 11.5 mph - N/A   Clear
3:00 AM 66.2 °F 26.6 °F 23% 29.83 in - WSW 4.6 mph - N/A   Clear
4:00 AM 64.4 °F 26.6 °F 24% 29.86 in - WSW 5.8 mph - N/A   Clear
5:00 AM 63 °F 24 °F 12%  in 25 mi WSW 6.9 mph - -  
5:00 AM 62.6 °F 24.8 °F 24% 29.83 in - WSW 5.8 mph - N/A   Clear
6:00 AM 62.6 °F 24.8 °F 24% 29.86 in - WSW 5.8 mph - N/A   Clear
7:00 AM 66.2 °F 28.4 °F 24% 29.89 in - SW 9.2 mph - N/A   Clear
7:33 AM 69.8 °F 26.6 °F 20% 29.92 in - SW 9.2 mph - N/A   Clear
8:00 AM 71 °F 27 °F 10%  in 25 mi SW 11.5 mph - -  
8:00 AM 69.8 °F 28.4 °F 21% 29.89 in - SW 10.4 mph - N/A   Clear
9:00 AM 71.6 °F 32.0 °F 23% 29.92 in - SSW 8.1 mph - N/A   Clear
10:00 AM 77.0 °F 33.8 °F 21% 29.89 in - SSW 8.1 mph - N/A   Clear
10:33 AM 80.6 °F 35.6 °F 20% 29.89 in - SW 8.1 mph - N/A   Clear
11:00 AM 83 °F 36 °F 10%  in 25 mi SSW 8.1 mph - -   Scattered Clouds
11:00 AM 82.4 °F 35.6 °F 19% 29.89 in - SSW 8.1 mph - N/A   Clear
11:42 AM 86.0 °F 32.0 °F 14% 29.86 in - SW 8.1 mph - N/A   Clear
12:00 PM 87.8 °F 32.0 °F 14% 29.86 in - SSW 8.1 mph - N/A   Clear
1:00 PM 89.6 °F 28.4 °F 11% 29.83 in - SW 9.2 mph - N/A   Clear
2:00 PM 92 °F 24 °F 4%  in 25 mi SSW 8.1 mph - -   Scattered Clouds
2:00 PM 91.4 °F 24.8 °F 9% 29.80 in - SSW 6.9 mph - N/A   Clear
3:00 PM 93.2 °F 21.2 °F 7% 29.80 in - SW 10.4 mph - N/A   Clear
4:00 PM 95.0 °F 23.0 °F 8% 29.77 in - SSW 9.2 mph 23.0 mph N/A   Clear
5:00 PM 95 °F 22 °F 4%  in 25 mi SW 9.2 mph - -   Scattered Clouds
5:00 PM 95.0 °F 23.0 °F 8% 29.77 in - SW 8.1 mph - N/A   Clear
6:00 PM 95.0 °F 15.8 °F 6% 29.77 in - West 10.4 mph - N/A   Clear
7:00 PM 91.4 °F 14.0 °F 6% 29.77 in - WSW 10.4 mph - N/A   Clear
8:00 PM 85 °F 18 °F 4%  in 25 mi West 6.9 mph - -   Scattered Clouds
8:00 PM 84.2 °F 19.4 °F 9% 29.80 in - West 5.8 mph - N/A   Clear
9:00 PM 78.8 °F 19.4 °F 11% 29.83 in - WNW 6.9 mph - N/A   Unknown
10:00 PM 75.2 °F 21.2 °F 13% 29.83 in - WNW 6.9 mph - N/A   Unknown
11:00 PM 73 °F 18 °F 5%  in - West 6.9 mph - -  
11:00 PM 73.4 °F 19.4 °F 13% 29.86 in - West 5.8 mph - N/A   Unknown